Location: Newark
(34.6283°N, 36.0776°E)
Time: 16:08:57
(UTC+00:00)

Vanguard 1 Rocket - All Passes

Search period start: 23 September 2019 00:00
Search period end: 03 October 2019 00:00
Orbit: 651 x 4225 km, 34.3° (Epoch: 20 September)

Date Brightness Start Highest point End Pass type
(mag) Time Alt. Az. Time Alt. Az. Time Alt. Az.
23 Sep - 11:33:29 10° SSW 11:55:44 38° SE 12:13:53 10° E daylight
23 Sep - 14:01:32 10° SW 14:26:59 69° SSE 14:42:26 10° ENE daylight
23 Sep - 16:35:54 10° W 16:57:24 89° S 17:08:07 10° E visible
23 Sep - 19:10:50 10° W 19:25:12 69° SSW 19:32:22 10° ESE visible
23 Sep - 21:44:01 10° W 21:49:22 18° SW 21:53:18 10° S visible
24 Sep - 10:23:06 10° S 10:41:33 26° SE 10:58:40 10° E daylight
24 Sep - 12:47:12 10° SW 13:12:28 58° SSE 13:30:18 10° ENE daylight
24 Sep - 15:19:23 10° WSW 15:43:48 84° SSE 15:56:59 10° E visible
24 Sep - 17:54:58 10° W 18:13:09 84° SSW 18:21:59 10° ESE visible
24 Sep - 20:28:43 10° W 20:38:58 37° SW 20:44:51 10° SSE visible
25 Sep - 09:16:33 10° SSE 09:27:45 15° SE 09:39:04 10° ESE daylight
25 Sep - 11:34:21 10° SSW 11:57:51 45° SE 12:17:15 10° E daylight
25 Sep - 14:03:33 10° WSW 14:29:31 76° SSE 14:45:25 10° E daylight
25 Sep - 16:38:27 10° W 17:00:17 89° S 17:11:11 10° E visible
25 Sep - 19:13:26 10° WNW 19:27:55 60° SSW 19:35:14 10° SE visible
25 Sep - 21:48:25 10° WSW 21:51:37 12° SW 21:54:18 10° SSW visible
26 Sep - 10:23:11 10° S 10:43:30 33° SE 11:02:44 10° E daylight
26 Sep - 12:48:53 10° SW 13:14:46 65° SSE 13:33:18 10° ENE daylight
26 Sep - 15:21:49 10° WSW 15:46:34 88° S 16:00:01 10° E visible
26 Sep - 17:57:32 10° W 18:15:59 78° SSW 18:24:59 10° ESE visible
26 Sep - 20:31:44 10° W 20:41:20 29° SW 20:47:11 10° SSE visible
27 Sep - 09:14:29 10° S 09:29:41 21° SE 09:45:26 10° E daylight
27 Sep - 11:35:37 10° SW 11:59:55 53° SE 12:20:23 10° ENE daylight
27 Sep - 14:05:46 10° WSW 14:32:05 82° SSE 14:48:24 10° E daylight
27 Sep - 16:41:01 10° W 17:03:08 87° S 17:14:15 10° E visible
27 Sep - 19:16:04 10° WNW 19:30:29 50° SW 19:37:59 10° SE visible
28 Sep - 10:23:55 10° SSW 10:45:23 40° SE 11:06:15 10° E daylight
28 Sep - 12:50:49 10° SW 13:17:06 72° SSE 13:36:14 10° ENE daylight
28 Sep - 15:24:20 10° W 15:49:20 89° S 16:03:03 10° E visible
28 Sep - 18:00:03 10° WNW 18:18:43 71° SSW 18:27:56 10° ESE visible
28 Sep - 20:35:01 10° W 20:43:34 23° SW 20:49:10 10° S visible
29 Sep - 09:14:06 10° S 09:31:28 27° SE 09:50:07 10° E daylight
29 Sep - 11:37:14 10° SW 12:02:00 60° SSE 12:23:21 10° ENE daylight
29 Sep - 14:08:09 10° WSW 14:34:43 86° S 14:51:23 10° E daylight
29 Sep - 16:43:33 10° W 17:05:56 83° SSW 17:17:17 10° ESE visible
29 Sep - 19:18:47 10° WNW 19:32:52 42° SW 19:40:30 10° SSE visible
30 Sep - 08:08:01 10° SSE 08:18:16 15° SE 08:29:28 10° E daylight
30 Sep - 10:25:07 10° SSW 10:47:13 47° SE 11:09:27 10° ENE daylight
30 Sep - 12:53:00 10° WSW 13:19:30 78° SSE 13:39:09 10° E daylight
30 Sep - 15:26:54 10° W 15:52:07 89° S 16:06:06 10° E visible
30 Sep - 18:02:34 10° WNW 18:21:18 62° SSW 18:30:44 10° SE visible
30 Sep - 20:38:51 10° W 20:45:39 17° SW 20:50:35 10° SSW visible
01 Oct - 09:14:37 10° S 09:33:10 33° SE 09:53:58 10° E daylight
01 Oct - 11:39:09 10° SW 12:04:07 67° SSE 12:26:14 10° ENE daylight
01 Oct - 14:10:40 10° W 14:37:23 88° S 14:54:22 10° E daylight
01 Oct - 16:46:04 10° W 17:08:39 78° SSW 17:20:15 10° ESE visible
01 Oct - 19:21:37 10° WNW 19:35:06 34° SW 19:42:49 10° SSE visible
02 Oct - 08:06:27 10° SSE 08:19:57 20° SE 08:35:37 10° E daylight
02 Oct - 10:26:42 10° SW 10:49:05 54° SE 11:12:24 10° ENE daylight
02 Oct - 12:55:22 10° WSW 13:21:58 83° SSE 13:42:03 10° E daylight
02 Oct - 15:29:29 10° W 15:54:53 87° S 16:09:07 10° ESE visible
02 Oct - 18:05:06 10° WNW 18:23:43 54° SW 18:33:25 10° SE visible
02 Oct - 20:44:02 10° WSW 20:47:38 12° WSW 20:50:40 10° SW visible
